UNITE

Last updated on Fri Oct 22 2021 12:26:02 GMT+0000 (Coordinated Universal Time)

1 44031U 98067PX 21293.33218668 .03273780 12126-4 74864-3 0 9994 2 44031 51.6249 329.2799 0004574 4.3404 355.7657 16.29226393155537

Satellite not in orbit